Location: Minneapolis
(44.9800°N, 93.2640°W)
Time: 13:21:18
(UTC-05:00)

Iridium 96 - Visible Passes

Search period start: 28 July 2016 00:00
Search period end: 07 August 2016 00:00
Orbit: 775 x 780 km, 86.4° (Epoch: 28 July)

Date Brightness Start Highest point End Pass type
(mag) Time Alt. Az. Time Alt. Az. Time Alt. Az.
28 Jul 7.1 21:21:38 10° NNE 21:25:11 18° ENE 21:28:41 10° ESE visible
28 Jul 5.9 23:01:12 10° N 23:06:21 60° W 23:09:28 23° SSW visible
29 Jul 5.5 22:27:37 10° N 22:32:51 77° E 22:36:12 23° S visible
30 Jul 8.0 00:10:17 10° NW 00:12:51 14° WNW 00:15:25 10° WSW visible
30 Jul 6.0 21:54:16 10° N 21:59:14 43° E 22:02:57 17° SSE visible
30 Jul 7.4 23:35:32 10° NNW 23:39:41 24° W 23:43:26 12° SW visible
31 Jul 6.7 21:21:13 10° NNE 21:25:29 25° ENE 21:29:42 10° SE visible
31 Jul 6.5 23:01:29 10° NNW 23:06:23 42° W 23:10:11 16° SSW visible
01 Aug 5.6 22:27:44 10° N 22:32:58 76° W 22:36:57 17° S visible
02 Aug 5.6 21:54:15 10° N 21:59:25 61° E 22:03:44 15° SSE visible
02 Aug 7.9 23:36:15 10° NW 23:39:35 17° WNW 23:42:56 10° WSW visible
03 Aug 6.3 21:21:00 10° NNE 21:25:45 35° E 21:30:29 10° SE visible
03 Aug 7.2 23:01:52 10° NNW 23:06:22 30° W 23:10:51 10° SW visible
04 Aug 6.2 22:27:57 10° NNW 22:33:02 53° W 22:37:53 11° SSW visible
05 Aug 5.5 21:54:19 10° N 21:59:34 86° E 22:04:44 10° S visible
05 Aug 8.2 23:37:27 10° NW 23:39:28 12° WNW 23:41:28 10° W visible
06 Aug 5.8 21:20:54 10° N 21:25:59 49° E 21:31:01 10° SSE visible
06 Aug 7.7 23:02:25 10° NNW 23:06:19 22° W 23:10:13 10° SW visible
